Home   Weather   Ocala   Past weeks

Flag for USA Past Weather in Ocala, Florida, USA — Yesterday and Last 2 Weeks

Now
48 °F

Sunny.


Feels Like: 46 °F
Forecast: 49 / 72 °F
Wind: 5 mph from North

Location: Ocala Municipal

Current Time: Dec 3, 2016 at 9:02:28 am

Latest Report: Dec 3, 2016 at 7:50 am


Visibility: 10 mi

Pressure: 30.20 "Hg

Humidity: 66%

Dew Point: 37 °F

Location of OcalaLocation

Past Weather in Ocala — Graph

°F

Ocala Temperature Yesterday

Maximum temperature yesterday: 70 °F (at 1:50 pm)
Minimum temperature yesterday: 46 °F (at 7:50 am)
Average temperature yesterday: 54 °F

High & Low Weather Summary for the Past Weeks

 TemperatureHumidityPressure
High82 °F (Nov 24, 3:50 pm)94% (Nov 19, 5:35 am)30.29 "Hg (Nov 19, 5:35 am)
Low32 °F (Nov 21, 4:35 am)13% (Nov 21, 3:50 pm)29.90 "Hg (Nov 30, 2:50 pm)
Average58 °F71%30.13 "Hg
* Reported Nov 18 7:50 am — Dec 3 7:50 am, Ocala, Weather by CustomWeather, © 2016

Note: Actual official high and low records may vary slightly from our data, if they occured in-between our weather recording intervals... More about our weather records

Advertising

Ocala Weather History for the Previous 24 Hours

Scroll right to see more
 ConditionsComfort  
Time TempWeatherWind HumidityBarometerVisibility
7:50 am
Sat, Dec 3
48 °FSunny.5 mph66%30.20 "Hg10 mi
6:35 am48 °FClear.3 mph71%30.19 "Hg10 mi
6:15 am48 °FClear.No wind66%30.18 "Hg10 mi
5:55 am48 °FClear.6 mph71%30.18 "Hg10 mi
5:35 am46 °FClear.3 mph71%30.18 "Hg10 mi
4:55 am45 °FClear.5 mph76%30.18 "Hg10 mi
4:35 am45 °FClear.No wind76%30.18 "Hg10 mi
4:15 am45 °FClear.5 mph76%30.18 "Hg10 mi
3:55 am45 °FClear.No wind76%30.18 "Hg10 mi
3:35 am45 °FClear.No wind76%30.18 "Hg10 mi
3:15 am45 °FClear.5 mph76%30.18 "Hg10 mi
2:55 am45 °FClear.5 mph76%30.18 "Hg10 mi
2:35 am45 °FClear.N/A76%30.18 "Hg10 mi
1:55 am45 °FClear.No wind76%30.19 "Hg10 mi
1:35 am45 °FClear.No wind76%30.19 "Hg10 mi
1:15 am46 °FClear.No wind71%30.19 "Hg10 mi
12:55 am46 °FClear.No wind71%30.19 "Hg10 mi
12:35 am46 °FClear.No wind71%30.19 "Hg10 mi
11:55 pm
Fri, Dec 2
46 °FClear.No wind76%30.20 "Hg10 mi
11:15 pm48 °FClear.No wind71%30.20 "Hg10 mi
10:55 pm48 °FClear.No wind71%30.21 "Hg10 mi
10:35 pm50 °FClear.No wind67%30.22 "Hg10 mi
10:15 pm50 °FClear.No wind67%30.22 "Hg10 mi
9:55 pm50 °FClear.No wind62%30.21 "Hg10 mi
9:15 pm52 °FClear.No wind62%30.20 "Hg10 mi
8:55 pm52 °FClear.No wind58%30.20 "Hg10 mi
8:15 pm55 °FClear.3 mph51%30.19 "Hg10 mi
7:55 pm54 °FClear.5 mph54%30.18 "Hg10 mi
6:50 pm55 °FClear.5 mph51%30.17 "Hg10 mi
5:50 pm61 °FClear.5 mph42%30.15 "Hg10 mi
4:50 pm66 °FSunny.9 mph32%30.13 "Hg10 mi
3:50 pm70 °FSunny.12 mph29%30.13 "Hg10 mi
2:50 pm70 °FSunny.12 mph29%30.13 "Hg10 mi
1:50 pm70 °FSunny.8 mph29%30.14 "Hg10 mi
12:50 pm66 °FSunny.8 mph37%30.16 "Hg10 mi
11:50 am64 °FSunny.8 mph34%30.18 "Hg10 mi
10:50 am61 °FSunny.8 mph39%30.20 "Hg10 mi
9:50 am57 °FSunny.8 mph44%30.20 "Hg10 mi
Weather by CustomWeather, © 2016

See weather overviewHow to use our weather pages